sat.trackr.live / text

‹ back to catalog

YAOGAN-17 01B

NORAD 39240 · 2013-046B

PAYLOAD ACTIVE UNKNOWN

§ Identity

Operator
Country
PRC
Launch date
2013-09-01
Launch site
JSC
Launch vehicle
Mass (kg)
RCS (m²)
2.64

External: N2YO · Heavens-Above · Gunter

§ Orbital elements

Epoch: 2026-05-25T05:36:56.729952Z

Period
107.03 min
Inclination
63.3851°
Eccentricity
0.0424451
Mean motion
13.45468679 rev/d
Perigee alt
772.0 km
Apogee alt
1,405.9 km
Semi-major
7,467.1 km
B*
-8.9716e-5
RAAN
150.0635°
Arg perigee
11.2867°
Mean anomaly
349.7321°
Rev number
62,524

§ Raw data

YAOGAN-17 01B1 39240U 13046B   26145.23398993 -.00000183  00000+0 -89716-4 0  99942 39240  63.3851 150.0635 0424451  11.2867 349.7321 13.45468679625242

JSON: /api/v1/satellites/39240 · /tle

For live sub-satellite position, see the globe view (requires WebGL).

§ Visibility from observer

Set your observer location to see the next 7 days of passes ≥ 10°. The values pass through the URL so the page stays shareable.

No JS? Fill the form by hand. The geolocation button needs JavaScript.